AirNav   Bose Proflight Series 2 Wireless viation Headset
 
 407 users online  

81NE Bunger Field Airport
Hildreth, Nebraska, USA

GOING TO HILDRETH?


FAA INFORMATION EFFECTIVE 10 OCTOBER 2019

Location

FAA Identifier: 81NE
Lat/Long: 40-16-25.0450N 099-00-28.3020W
40-16.417417N 099-00.471700W
40.2736236,-99.0078617
(estimated)
Elevation: 2170 ft. / 661 m (estimated)
Variation: 08E (1985)
From city: 4 miles SE of HILDRETH, NE
Time zone: UTC -5 (UTC -6 during Standard Time)
Zip code: 68981

Airport Operations

Airport use: Private use. Permission required prior to landing
Activation date: 02/1987
Control tower: no
ARTCC: MINNEAPOLIS CENTER
FSS: COLUMBUS FLIGHT SERVICE STATION
Attendance: UNATNDD
Wind indicator: yes
Segmented circle: no

Airport Communications

WX AWOS-3 at HDE (18 nm NW): 121.325 (308-995-6433)

Nearby radio navigation aids

VOR radial/distance  VOR name  Freq  Var
EARr175/(27.1)KEARNEY VOR111.2005E
HSIr226/33.0HASTINGS VOR/DME108.8007E

Airport Services

Runway Information

Runway N/S

Dimensions: 2182 x 150 ft. / 665 x 46 m
Surface: turf
RUNWAY N  RUNWAY S
Traffic pattern: leftleft
Obstructions: none50 ft. trees

Airport Ownership and Management from official FAA records

Ownership: Privately-owned
Owner: WILLIAM D BUNGER
P O BOX 111
HILDRETH, NE 68947
Phone 308-938-2626

Additional Remarks

FOR CD CTC MINNEAPOLIS ARTCC AT 651-463-5588.

Instrument Procedures

There are no published instrument procedures at 81NE.

Some nearby airports with instrument procedures:

0V3 - Pioneer Village Field Airport (15 nm N)
4D9 - Alma Municipal Airport (18 nm SW)
KHDE - Brewster Field Airport (18 nm NW)
7V7 - Red Cloud Municipal Airport (24 nm SE)
KEAR - Kearney Regional Airport (27 nm N)
 
Loc | Ops | Rwys | IFR | FBO | Links
Com | Nav | Svcs | Stats | Notes

Silverhawk Aviation, Inc.
AirBoss

 
Area around 81NE (Bunger Field Airport)
 
Road maps at: MapQuest Bing Google
 
Aerial photo
No photo
 
Sectional chart

 
Airport distance calculator
Flying to Bunger Field Airport? Find the distance to fly.

From to 81NE

Sunrise and sunset
Times for 15-Oct-2019
 Local
(UTC-5)
 Zulu
(UTC)
Morning civil twilight07:2012:20
Sunrise07:4812:48
Sunset18:5623:56
Evening civil twilight19:2300:23

Current date and time
Zulu (UTC)  15-Oct-2019 05:28:41
Local (UTC-5)  15-Oct-2019 00:28:41
 
METAR
KHDE 
18nm NW 
150515Z AUTO 00000KT 10SM CLR 11/07 A2982 RMK AO2 T01070073
KEAR 
27nm N 
150456Z AUTO 24006KT 10SM CLR 13/08 A2981 RMK AO2 SLP086 T01330078
KHSI 
33nm NE 
150453Z AUTO 20006KT 10SM CLR 14/08 A2980 RMK AO2 SLP084 T01440083
TAF
KEAR 
27nm N 
141720Z 1418/1518 18012KT P6SM FEW250 FM142000 18013G20KT P6SM SKC FM150100 VRB06KT P6SM SKC FM150800 33016KT P6SM SKC WS010/34040KT FM151400 33020G31KT P6SM SKC
NOTAMs
Click for the latest NOTAMs
NOTAMs are issued by the DoD/FAA and will open in a separate window not controlled by AirNav.

 

 
 

Would you like to see your business listed on this page?

 If your business provides an interesting product or service to pilots, flight crews, aircraft, or users of the Bunger Field Airport, you should consider listing it here.  To start the listing process, click on the button below
 
Add a business
 

Other Pages about Bunger Field Airport

Update a link
 
Copyright © AirNav, LLC. All rights reserved. Privacy Policy  Contact